Location: Waldport
(44.4270°N, 124.0680°W)
Time: 04:42:14
(UTC-07:00)

Meteor 1-26 Rocket - Visible Passes

Search period start: 19 April 2018 00:00
Search period end: 29 April 2018 00:00
Orbit: 828 x 907 km, 81.3° (Epoch: 18 April)

Date Brightness Start Highest point End Pass type
(mag) Time Alt. Az. Time Alt. Az. Time Alt. Az.
19 Apr 5.4 00:30:18 35° WNW 00:30:18 35° WNW 00:34:59 10° N visible
19 Apr 5.2 22:40:39 30° ENE 22:40:39 30° ENE 22:44:36 10° NNE visible
20 Apr 5.4 00:23:00 35° WNW 00:23:00 35° WNW 00:28:01 10° N visible
20 Apr 5.1 22:33:20 32° ENE 22:33:20 32° ENE 22:37:39 10° NNE visible
21 Apr 5.4 00:15:40 34° WNW 00:15:59 34° WNW 00:21:02 10° N visible
21 Apr 4.9 22:25:57 33° E 22:25:57 33° E 22:30:43 10° NNE visible
22 Apr 5.4 00:08:17 33° W 00:09:01 34° WNW 00:14:04 10° N visible
22 Apr 4.9 22:18:33 33° E 22:18:50 33° E 22:23:46 10° NNE visible
23 Apr 5.4 00:00:52 30° W 00:02:04 34° WNW 00:07:06 10° N visible
23 Apr 4.8 22:11:05 32° ESE 22:11:52 34° E 22:16:49 10° NNE visible
23 Apr 5.5 23:53:24 27° WSW 23:55:06 33° WNW 00:00:08 10° N visible
24 Apr 4.8 22:03:35 31° ESE 22:04:53 35° E 22:09:53 10° NNE visible
24 Apr 5.6 23:45:53 24° WSW 23:48:09 33° WNW 23:53:10 10° N visible
25 Apr 4.8 21:55:59 27° SE 21:57:55 35° E 22:02:56 10° NNE visible
25 Apr 5.6 23:38:18 20° WSW 23:41:11 32° WNW 23:46:11 10° N visible
26 Apr 4.8 21:48:20 23° SE 21:50:57 36° E 21:56:00 10° NNE visible
26 Apr 5.7 23:30:39 16° SW 23:34:14 32° WNW 23:39:14 10° N visible
27 Apr 4.8 21:40:36 19° SE 21:43:58 36° E 21:49:03 10° NNE visible
27 Apr 5.7 23:22:54 12° SW 23:27:17 31° WNW 23:32:16 10° N visible
28 Apr 4.8 21:32:45 14° SSE 21:37:00 37° E 21:42:07 10° NNE visible
28 Apr 5.8 23:15:28 10° SW 23:20:19 31° WNW 23:25:18 10° N visible
